Tracking 22993 objects as of 10-May-2021
HD Live streaming from Space Station
objects crossing your sky now

SATCOM 3 DEB

Track SATCOM 3 DEB now!


NORAD ID: 29002
Int'l Code: 1979-101E
Perigee: 8,377.2 km
Apogee: 35,595.2 km
Inclination: 8.9 °
Period: 792.1 minutes
Semi major axis: 28357 km
RCS: 0.0631 m2 (small)
Launch date: December 7, 1979
Source: United States (US)
Launch site: AIR FORCE EASTERN TEST RANGE (AFETR)

Note: This is SATELLITE DEBRIS
aabbcc
Your satellite tracking list
Your tracking list is empty




NASA's NSSDC Master Catalog

Two Line Element Set (TLE):
1 29002U 79101E   21130.46941878 -.00000122  00000-0  00000-0 0  9991
2 29002   8.8848 286.1577 4799143  83.2345 302.9580  1.81806274101577
Source of the keplerian elements: AFSPC